Hourly Data Report for February 22, 2004

TORONTO CITY
ONTARIO

43°40'00.000" N
79°24'00.000" W
112.50 m
6158355
71508
XTO

Download Data

Hourly Data (February 2004)
Hourly Data Report for February 22, 2004
TIME
LST
Temp Definition
°C
Dew Point Definition
°C
Rel Hum Definition
%
Precip. Amount Definition
mm

Wind Dir Definition
10's deg

Wind Spd Definition
km/h
Visibility Definition
km
Stn Press Definition
kPa
Hmdx Definition


Wind Chill Definition


Weather Definition


00:00 0.2 -4.1 73   LegendMM LegendMM LegendMM 99.84     LegendNANA
01:00 0.1 -4.2 73   LegendMM LegendMM LegendMM 99.98     LegendNANA
02:00 -0.1 -4.8 71   LegendMM LegendMM LegendMM 100.08     LegendNANA
03:00 -0.6 -5.3 70   LegendMM LegendMM LegendMM 100.16     LegendNANA
04:00 -1.3 -6.1 70   LegendMM LegendMM LegendMM 100.27     LegendNANA
05:00 -1.5 -6.7 68   LegendMM LegendMM LegendMM 100.43     LegendNANA
06:00 -1.3 -6.7 67   LegendMM LegendMM LegendMM 100.51     LegendNANA
07:00 -1.7 -6.2 71   LegendMM LegendMM LegendMM 100.58     LegendNANA
08:00 -1.6 -6.7 68   LegendMM LegendMM LegendMM 100.71     LegendNANA
09:00 -1.1 -6.9 65   LegendMM LegendMM LegendMM 100.80     LegendNANA
10:00 -1.0 -6.8 65   LegendMM LegendMM LegendMM 100.87     LegendNANA
11:00 0.0 -7.2 58   LegendMM LegendMM LegendMM 100.92     LegendNANA
12:00 2.0 -7.1 51   LegendMM LegendMM LegendMM 100.94     LegendNANA
13:00 1.6 -7.8 50   LegendMM LegendMM LegendMM 100.93     LegendNANA
14:00 1.7 -9.3 44   LegendMM LegendMM LegendMM 100.93     LegendNANA
15:00 2.2 -7.9 47   LegendMM LegendMM LegendMM 100.98     LegendNANA
16:00 2.1 -6.7 52   LegendMM LegendMM LegendMM 101.00     LegendNANA
17:00 1.9 -7.0 52   LegendMM LegendMM LegendMM 101.03     LegendNANA
18:00 1.3 -7.0 54   LegendMM LegendMM LegendMM 101.07     LegendNANA
19:00 0.6 -6.0 61   LegendMM LegendMM LegendMM 101.13     LegendNANA
20:00 0.0 -5.9 64   LegendMM LegendMM LegendMM 101.15     LegendNANA
21:00 -0.8 -7.3 61   LegendMM LegendMM LegendMM 101.16     LegendNANA
22:00 -1.0 -7.1 63   LegendMM LegendMM LegendMM 101.19     LegendNANA
23:00 -1.4 -7.4 64   LegendMM LegendMM LegendMM 101.21     LegendNANA

Notes on Data Quality.

Legend

  • E = Estimated
  • M = Missing
  • NA = Not Available*
  • [empty] = Indicates an unobserved value
Date modified: